CAPE
0 0 0 0 0 55 4 0 0 0 177 357 206 397 265 852 267 372 670 881 638 542 811 774 721 546 1010 799 1473 1022 1103 1114 965 830 750 668 693 412 211 142 142 125 46 59 102 106 53 110 111 27 33 452 767 1328 1696 1844 2008 2247 1970 2296 1936 1887 2220 1950 2346 2382 2434 2374 2645 2560 2069 2108 2270 2546 2511 2363 2419 2368 2619 2862 2966 2698 2712 3004 2950 3172
0 0 1 0 2 68 0 0 0 0 0 110 101 312 276 357 91 281 531 881 828 532 558 942 379 341 867 922 919 1287 1113 988 994 1005 772 571 699 516 386 462 299 419 170 313 286 138 90 171 113 221 501 899 1111 1422 1761 2157 2070 2060 2133 2093 1891 1956 2128 2265 2336 2511 2673 2722 2554 2410 2180 1763 1840 2082 2110 2288 2309 2430 2593 3060 2904 3195 3157 2976 3280 3529
0 0 0 1 0 0 0 0 0 0 64 210 354 329 33 4 396 510 1436 1412 1457 1034 818 478 540 831 1095 1260 1037 1209 1127 1057 1142 1198 880 575 652 626 602 757 631 330 409 324 365 170 189 273 172 364 661 880 1144 1300 1654 1996 1958 1953 2129 2255 2246 1866 1886 2109 2413 2570 2646 2722 2577 2143 1876 1828 1614 1938 2045 2042 2280 2317 2493 2549 2993 3331 3354 3315 3704 3883
0 0 0 0 0 0 0 0 0 0 0 234 397 270 191 297 274 392 648 1426 1246 1123 782 784 765 681 942 769 1469 1426 1187 1209 1050 1232 901 753 777 663 708 916 702 395 533 400 360 276 269 345 307 445 691 911 1062 1410 1401 1686 1876 1742 2078 2400 2541 2276 1732 1928 2023 2222 2055 2207 2738 2910 2977 2680 2247 2000 2192 2269 2099 2612 2551 2426 2408 2996 3026 3105 3358 3436
0 0 0 0 0 0 0 0 0 0 2 0 6 183 11 514 336 411 404 1194 907 944 657 837 839 670 882 1021 1244 1335 1328 1350 1191 1168 1129 958 981 990 1033 1059 995 721 736 551 422 383 412 430 326 560 774 912 982 1207 1320 1487 1493 1408 1937 2521 2747 2547 1853 2062 2317 2134 2106 2272 2666 2770 2715 2968 2522 2286 2378 2241 1964 2217 2426 2411 2394 2701 2929 3013 3580 3479
0 0 0 4 0 0 0 0 0 1 2 1 0 0 143 357 256 45 996 852 816 514 484 656 445 533 559 652 888 1190 1006 664 760 640 878 1119 1046 1116 1119 1193 1185 1121 967 771 756 416 377 514 567 741 923 976 1019 1250 1375 1323 1168 1205 1790 2410 2746 2560 2296 1916 2261 2186 2356 2335 2548 2840 2940 2729 2690 2848 2128 2003 2234 2280 1838 2240 2235 2723 2490 2850 3455 3706
0 0 0 8 2 1 2 1 0 2 4 5 3 1 0 53 331 601 862 543 577 508 727 205 432 179 850 423 791 917 922 894 730 829 654 839 1188 1246 1088 901 998 1075 897 819 801 456 356 477 696 844 969 994 1018 1247 1252 1331 1166 1111 1871 2409 2593 2778 2515 2070 2335 2267 2425 2700 2711 2784 2532 2391 2560 2516 2326 2670 2401 2225 2116 2586 2399 2774 2786 3094 3158 3155
0 0 0 2 5 5 6 2 0 5 7 5 3 3 3 6 161 203 243 507 386 410 846 304 195 646 425 685 909 1358 1318 1324 1266 1262 1061 680 1016 1166 1139 737 846 944 940 808 872 730 510 493 640 795 970 964 879 915 1091 1204 1228 1283 2097 2619 2557 2730 2542 2338 2464 2439 2283 2596 2774 2839 2639 2508 2628 2156 2549 2514 2568 2617 2729 2493 2608 2647 2883 2822 3043 3112
0 0 0 3 8 9 11 8 2 5 8 4 5 6 14 0 19 3 8 37 145 89 819 333 567 352 397 1214 1074 1205 1361 1508 1428 1426 1353 1163 1017 1143 1173 748 750 877 921 913 860 846 658 705 501 780 896 817 675 649 862 1259 1209 1380 2021 2728 2652 2764 2826 2632 2614 2488 2230 2416 2832 2909 2829 2889 2568 2435 2535 2583 2458 2841 2519 2916 2832 3053 2977 3092 3056 2914
0 0 0 7 16 16 13 2 0 1 21 2 0 3 10 0 0 3 7 28 276 54 112 859 613 441 452 1178 908 1221 1361 1397 1397 1455 1277 1255 1182 1157 1216 998 703 827 966 875 900 794 790 793 676 627 657 564 482 505 727 950 1195 1390 1903 2434 2662 2934 2803 2798 2909 2486 2414 2443 2727 2900 2948 2943 2772 2611 2898 2609 2868 3060 2881 3001 3176 3356 3450 2988 2951 3247
0 0 0 1 11 18 10 0 0 0 2 0 16 15 7 12 99 16 202 393 397 133 87 581 578 353 169 732 568 683 911 1315 1226 1128 1244 1145 1031 857 1170 1393 993 910 953 952 919 900 805 829 781 568 431 583 475 499 553 683 1018 1406 1469 2032 2511 2897 2691 2830 3056 2539 2612 2485 2520 2703 3031 3012 3049 2827 2895 2707 2865 3048 3267 2989 2900 3246 3444 3226 3029 2916
0 0 0 0 0 0 0 0 0 0 0 0 14 40 36 19 1 77 330 527 242 25 456 562 625 552 258 775 640 687 1014 1072 1278 974 1079 1190 1261 1072 1182 1350 1238 1125 1064 954 866 916 922 916 877 795 639 540 553 540 598 584 929 1333 1371 1709 2293 2686 2829 2819 2910 2704 2565 2284 2424 2467 2646 3070 3011 2996 2636 2729 2700 2436 2744 2662 2702 3288 3374 3284 3212 3071
0 0 0 0 0 1 17 14 13 0 0 2 8 46 44 26 3 161 434 49 22 80 389 225 481 691 498 589 477 508 852 799 1135 1223 1059 1143 1221 1187 1312 1547 1441 1259 1042 1062 986 902 857 767 714 766 822 840 767 738 742 693 736 1097 1408 1699 2105 2644 2744 2933 2640 2710 2667 2437 2373 2382 2423 2670 2818 3112 2864 2742 2741 2840 2900 2883 3003 3014 3258 3447 3260 3088
0 0 0 0 0 0 2 6 0 3 0 1 4 32 47 37 14 0 18 63 166 182 202 314 672 446 598 588 557 660 647 582 748 971 1138 1236 1293 1316 1365 1268 1557 1409 1199 1072 1047 1033 891 851 805 813 855 825 1009 964 1052 793 825 1030 1268 1634 1634 2530 2767 2842 2550 2557 2643 2570 2478 2526 2464 2388 2572 2949 2682 2686 2527 2576 2814 3053 3067 2576 2423 2993 2901 2736
0 0 0 0 0 0 1 2 0 5 3 0 2 13 36 40 20 14 20 25 43 229 162 471 320 373 351 589 491 565 572 632 541 795 1181 1281 1534 1609 1420 1197 1316 1508 1454 1215 1134 944 852 818 879 836 805 970 1284 1104 1106 911 1078 1407 1597 2163 2320 2450 2726 2858 2811 2612 2616 2584 2516 2574 2481 2307 2348 2393 2356 2663 2386 2495 2510 2468 2655 2691 2526 2385 2645 2648
0 0 0 0 0 0 0 0 0 0 1 2 0 12 22 39 14 10 96 133 27 316 469 498 152 559 671 818 929 833 716 562 670 914 1211 1735 1812 1615 1575 1499 1208 1404 1496 1272 1112 1019 897 998 973 909 1057 1097 1344 1367 1211 1266 1505 1952 2218 2861 2805 2634 2684 2402 2748 2475 2580 2613 2444 2575 2525 2271 2246 2173 2156 2572 2690 2563 2426 2383 2438 2744 2829 2677 2738 2767
0 0 0 0 0 0 0 0 0 0 1 2 0 4 11 0 10 16 0 4 122 190 196 473 277 186 564 340 768 651 606 718 628 824 1044 1623 1631 1542 1374 1629 1267 1365 1607 1540 1185 1089 1095 1081 902 938 983 1115 1193 1228 1497 1699 2264 2668 2906 3088 3030 2926 2838 2364 2677 2312 2388 2505 2558 2554 2458 2318 2231 2208 2022 1776 2193 2001 2005 2066 2235 2289 2413 2370 2715 2647
0 0 0 0 0 0 0 0 0 0 0 0 0 0 1 8 20 2 1 96 0 36 77 169 256 117 154 136 972 1351 857 764 686 812 988 1586 1199 1438 1285 1413 1708 1331 1193 1633 1525 1251 1204 1143 1084 1036 1063 1172 1116 1195 1709 2188 2518 2942 3072 3145 3096 3074 3082 2131 2214 1816 2157 2471 2482 2526 2466 2308 2151 1924 1742 1491 1546 1670 1917 2024 1932 2082 2128 2203 2208 2015
0 0 0 0 0 0 0 0 0 0 0 0 0 0 3 2 4 2 22 19 30 3 16 220 139 28 86 491 438 1325 1112 831 861 1033 1249 1606 1453 1182 1384 1489 1294 1192 1147 1454 1622 1330 1165 1151 1265 1308 1158 1296 1350 1420 1849 2326 2627 2922 2912 2823 3034 2873 2745 2171 1337 1242 1609 2068 2113 2012 2148 2165 2094 2014 1671 1392 1648 1641 1739 1754 1780 1745 1791 1851 2102 2411
0 0 0 0 0 0 0 0 0 0 0 0 0 0 0 0 0 0 0 0 26 79 29 101 61 49 35 10 452 1170 1286 1281 1213 1398 1304 1778 1670 1450 1470 1499 1349 1193 1361 1605 1643 1399 1240 1149 1246 1329 1398 1583 1736 1694 1745 2334 2344 2438 2672 2686 2888 2830 2779 2260 1166 1112 1326 1469 1595 1454 1795 2011 2086 2072 1868 1576 1638 1539 1754 1708 1758 1866 1643 1804 1945 2034
0 0 22 0 0 0 0 0 0 0 0 0 0 0 0 0 0 0 0 0 0 34 6 12 45 58 877 1472 2263 2036 1862 1670 1550 1374 1322 1452 1577 1371 1333 1502 2004 2369 2101 1606 1833 1592 1308 1135 1038 1284 1460 1602 1723 1727 1810 2254 2240 2151 2313 2478 2827 2768 2490 2105 1362 1284 1639 1120 1123 1202 1561 1805 1908 1765 1716 1459 1669 1601 1417 1551 1596 1650 1692 2050 1988 2052
0 0 0 0 0 0 0 0 0 0 0 0 0 0 0 0 0 0 0 0 0 5 6 11 0 184 762 1129 1824 1880 1644 1702 1498 1474 1378 1504 1524 1349 1157 1308 1488 2074 2136 2469 2336 1750 1228 1147 967 1115 1360 1332 1524 1772 1953 2077 1936 1956 1365 1539 2370 2168 2594 2384 2245 2212 2577 1744 1377 1252 1371 1292 1215 1601 1296 1214 1130 1268 1160 1243 1595 1643 1793 1766 1892 1692
3 26 0 0 0 0 0 0 0 0 0 0 0 0 0 0 0 0 0 0 0 0 0 45 21 759 711 759 1352 1464 1497 1446 1353 1348 1426 1268 1399 1164 1296 1267 1490 1644 1776 1926 1512 1079 1076 1837 1414 1054 1055 1095 1113 1476 1622 1514 1359 1627 1637 1738 1962 2068 2432 2511 2655 2866 3248 2876 2307 2108 1718 1558 1250 1204 1102 828 693 762 686 947 1194 1392 1425 1248 931 1630
81 35 2 0 0 0 0 0 0 0 0 0 0 0 0 0 0 0 0 0 0 0 16 68 33 528 1076 970 1156 1600 1440 1561 1444 1331 1407 1444 1284 1268 1301 1396 1567 1639 1524 1586 1286 678 483 645 580 1010 867 738 1026 1278 1298 1110 1194 1185 1712 1887 2183 2187 2269 2437 2716 3073 3392 3307 3115 3014 2325 2056 1676 1310 792 490 422 421 483 367 502 892 1061 850 496 836
264 228 181 0 0 0 0 0 0 0 0 0 0 0 0 0 0 0 0 1 0 0 4 0 0 98 1409 939 1110 1130 1128 1276 1355 1409 1256 1342 1460 1440 1343 1103 1145 1466 1600 1617 1460 1590 1838 1707 1406 1195 1478 2040 1925 1083 834 843 1084 1389 1642 1984 2032 2090 2142 2434 2742 3090 3313 3320 3287 3068 2944 2600 2272 1865 1761 1600 1221 662 383 288 267 337 535 495 328 385
91 106 184 24 2 0 0 0 0 0 0 0 0 0 0 0 0 0 0 0 0 0 0 0 0 1305 1150 1026 1094 1233 1242 1523 1426 1298 1372 1464 1362 1278 1222 1264 1294 1352 1452 1514 1650 1571 1638 1772 1821 1757 1823 1459 1091 899 1069 1698 1788 1891 2030 1785 2055 2051 2196 2594 2553 2475 2610 2696 2800 2975 2705 2017 1720 1856 2010 2259 2118 1885 1205 635 409 363 376 552 400 417
41 138 225 83 52 47 114 157 0 9 0 0 0 0 0 0 0 0 0 0 0 3 27 14 0 1173 1391 963 1125 1116 1261 1495 1254 1192 1194 1187 1160 1317 1592 1574 1511 1539 1503 1288 1490 1553 1856 1579 1572 1650 1859 2006 1684 1244 1216 1448 1598 1851 1533 1348 1896 1988 2211 2392 2408 2620 2715 2422 1928 1987 1437 1103 1607 1942 2315 2661 2640 2648 2232 1432 789 509 567 660 613 482
192 69 26 106 81 70 159 73 73 37 0 0 0 0 0 0 0 0 0 0 0 0 0 0 8 82 1408 1334 1212 1320 1327 1411 1083 968 914 944 940 1144 1413 1336 1243 1368 1363 1391 1425 1564 1614 1671 1618 1411 1463 1493 1793 1797 1836 1669 1726 1434 988 776 983 1675 2076 2231 2154 2085 2385 2331 2047 1801 1759 1752 1876 2125 2580 3027 2968 3055 2858 2388 1676 1381 1374 1372 1156 954
82 10 3 0 2 58 176 283 305 283 232 215 178 90 105 84 38 11 0 366 380 0 4 715 899 279 1086 1379 1268 1133 1508 1054 1117 947 799 828 884 907 1014 1126 1119 1201 1184 1056 1005 950 872 758 1046 1274 1401 1456 1368 1406 1405 1394 1524 1852 1660 1427 1086 1456 1788 1519 1540 1703 1648 1973 1881 1995 2297 2418 2152 2228 2753 2855 2884 2852 2895 3085 2615 2203 2057 1922 1740 1316
68 11 26 0 3 60 120 197 284 292 254 298 410 425 444 402 496 431 622 826 862 1302 836 1036 2042 1770 1471 1445 1198 1198 1059 1084 955 884 769 766 903 950 981 1016 1006 1022 990 983 929 941 891 859 787 823 956 1059 1278 1118 1048 1159 1068 1243 1300 1470 1539 1489 1639 1572 1556 1721 1819 1761 1738 1926 1911 2073 2203 2078 1887 1946 1864 1886 2156 2281 2358 2251 2443 2238 2034 1770
83 274 1047 264 36 24 84 175 231 202 182 202 242 426 573 575 656 743 834 858 1164 1362 926 1454 1986 1680 1305 1175 1196 984 1204 1071 1025 1125 1002 991 1024 1109 1059 1042 1032 841 784 852 1038 923 1016 870 891 918 979 1044 1023 1056 920 905 923 918 1477 1604 1603 1580 1644 1599 1602 1846 1652 1597 1566 1426 1605 1777 1876 1557 1093 904 933 1358 1413 1430 1861 2014 2178 2202 2160 2305
22 392 229 502 92 0 0 0 38 135 119 106 98 132 385 739 807 866 996 863 1173 1418 1382 1450 1319 1393 940 1243 1016 1051 1088 941 1132 1294 1216 1109 1188 1160 1145 1034 921 781 842 876 922 855 782 761 715 616 638 702 771 861 848 903 982 987 980 976 1196 1615 1780 1691 1598 1547 1494 1596 1633 1385 1076 1216 1389 1432 1382 1189 975 897 970 1097 1442 1835 1689 2007 1994 2205
171 272 48 4 44 167 0 1 2 3 85 104 41 12 124 724 885 826 775 729 802 966 1231 825 752 1033 1215 986 978 929 949 905 1151 1385 1267 1223 1210 1227 1150 1042 859 847 855 722 776 746 724 652 565 603 513 582 554 576 656 722 758 879 913 899 953 963 1181 1291 1393 1343 1371 1142 1152 1135 1115 946 1117 1196 1225 1306 1409 1399 1318 1313 1241 1494 1590 1544 1841 1898
209 59 175 90 26 72 10 51 18 33 162 55 0 0 37 374 805 691 587 734 842 916 981 769 1121 1101 1143 1035 1038 1009 1142 1060 1295 1290 1274 1158 1140 1041 975 806 766 691 623 594 523 435 461 455 532 494 452 473 560 640 690 698 680 745 804 826 861 852 784 765 656 788 829 814 895 1114 1208 1488 949 985 924 1058 1124 1134 1185 1274 1281 1395 1796 1728 1920 1920
260 285 298 8 37 81 195 13 20 130 36 1 0 0 156 408 621 460 490 699 749 748 718 938 946 1116 1041 894 963 925 1128 907 1230 1251 1090 1010 906 836 775 684 618 560 491 448 514 369 514 574 533 442 373 432 457 495 490 496 504 580 701 811 835 796 652 610 658 671 673 663 724 637 632 595 615 725 605 528 571 696 949 1174 1253 1109 1212 1622 1798 1649
193 223 308 30 279 31 17 12 14 204 44 0 1 6 97 408 473 703 151 427 607 582 733 998 1105 1098 1068 950 850 1048 1220 889 931 1075 979 933 816 714 611 558 531 472 428 366 548 378 426 440 417 401 465 486 524 503 448 473 543 562 552 646 667 656 637 675 633 637 679 629 599 676 542 407 495 585 568 565 527 644 651 782 969 1065 1183 1512 1721 1712
158 384 308 279 175 10 18 11 82 234 55 38 66 6 4 5 128 312 262 119 601 566 786 842 918 998 904 907 758 1130 1113 914 1210 1172 937 935 765 651 597 530 479 434 386 335 267 306 294 314 322 308 474 529 561 493 494 413 431 413 542 432 624 582 580 549 547 575 549 497 495 429 480 466 473 507 480 435 385 364 417 555 676 732 908 1281 1450 1447
19 263 219 182 120 362 10 4 6 0 68 195 3 8 0 0 2 71 355 45 173 548 567 986 948 948 780 670 691 1054 966 1033 1256 1067 964 852 710 610 568 525 470 419 369 311 250 282 328 334 295 254 270 336 425 448 371 316 330 291 331 352 384 367 427 484 497 488 410 366 412 334 365 383 396 394 232 250 302 342 351 370 493 622 592 881 965 1018
2 55 194 179 158 174 30 2 4 2 0 18 3 2 2 0 0 0 515 76 9 395 581 792 921 912 1002 977 847 912 1035 1155 848 797 741 678 601 505 477 423 405 419 379 338 278 217 199 251 166 131 136 154 232 241 194 211 292 296 306 412 373 332 298 300 467 423 338 241 236 223 343 315 258 207 176 0 166 359 349 478 491 656 730 607 575 523
29 13 71 99 287 14 192 80 11 55 250 27 4 3 0 0 0 0 17 29 0 92 512 663 919 884 1052 1043 999 1136 898 849 822 617 518 486 459 424 353 371 367 343 352 282 303 232 173 96 99 99 28 153 262 290 225 142 192 304 275 189 148 237 247 214 263 307 305 96 104 243 325 299 257 197 133 26 145 8 135 98 1 213 357 317 602 621
45 0 49 101 98 81 24 181 95 10 10 0 5 9 48 0 15 23 21 11 0 13 347 675 769 936 1042 1036 976 999 772 734 541 223 71 140 46 90 228 287 312 329 300 298 268 222 166 43 29 0 97 123 147 230 259 208 206 208 229 220 194 243 259 0 177 269 238 209 126 215 264 303 287 116 166 51 97 137 222 227 223 70 104 228 211 235
0 18 0 24 6 16 17 56 5 106 1 17 70 109 253 42 328 22 5 7 14 35 227 432 675 836 925 907 884 696 822 564 335 150 127 113 164 144 181 84 12 0 0 0 0 0 46 31 65 87 7 21 106 236 342 263 123 90 174 218 223 230 201 173 80 81 188 163 257 312 317 306 274 211 0 198 196 149 32 0 193 15 0 0 78 68
1 127 8 37 26 2 12 4 4 9 224 42 260 406 193 558 31 17 162 150 106 48 195 300 383 650 727 868 656 666 691 494 296 260 227 201 151 44 53 64 74 18 0 2 0 0 0 4 0 47 76 91 118 214 213 190 169 116 106 160 222 219 163 147 139 189 195 66 226 295 290 254 195 138 153 174 144 232 144 166 112 130 0 6 74 56
8 41 0 1 17 29 0 0 42 49 24 54 299 197 31 21 14 49 148 53 162 213 401 609 326 465 536 674 636 622 636 492 323 245 253 225 134 84 61 0 0 0 7 2 0 0 0 0 0 0 2 58 97 98 94 115 131 143 151 163 169 169 148 140 149 174 203 201 112 0 179 207 171 0 0 0 96 30 199 206 187 112 116 201 24 44
99 308 190 138 4 283 138 106 68 87 50 20 105 100 84 40 10 9 93 56 75 145 210 556 693 498 557 556 521 606 550 326 319 279 287 47 130 94 86 54 4 0 0 0 1 0 0 0 0 0 0 28 43 27 0 0 31 85 112 114 125 137 158 143 154 152 137 154 169 158 152 126 94 112 98 0 40 167 188 172 158 169 162 160 154 69
49 275 159 684 22 47 65 156 114 210 258 60 7 63 126 71 0 46 71 99 166 309 327 591 759 533 461 458 440 453 468 485 258 204 288 173 109 76 56 17 25 0 0 0 0 0 0 0 0 0 0 0 0 0 0 0 0 0 0 0 12 67 99 146 172 160 143 136 124 127 157 154 112 79 47 105 0 0 82 89 45 0 0 86 90 0
159 76 129 122 73 115 150 294 412 214 158 233 104 45 154 62 53 33 56 57 214 423 660 634 791 668 575 407 469 539 554 459 323 205 217 119 73 75 58 45 36 18 4 0 0 0 0 0 0 0 0 0 0 0 0 4 19 0 0 0 0 0 0 0 8 68 94 115 117 89 73 89 119 96 53 0 0 0 0 0 75 108 83 10 63 0
212 55 136 141 48 120 402 217 302 215 177 201 201 282 128 89 65 50 42 53 158 370 473 500 646 731 546 540 521 541 316 242 177 199 179 108 96 21 33 72 21 29 13 2 0 0 0 0 0 0 0 0 0 0 0 0 7 0 0 0 0 0 0 0 0 0 0 0 0 0 0 11 56 54 94 111 46 0 0 0 0 0 0 0 0 0
366 18 129 131 65 252 47 92 180 216 219 224 112 102 123 130 156 90 40 13 7 73 279 301 302 554 600 578 432 385 258 214 167 203 254 227 234 51 30 130 135 157 127 12 7 0 0 0 0 0 0 0 0 0 0 0 0 0 0 0 0 0 0 0 0 0 0 0 0 0 0 0 0 0 20 62 88 79 0 0 0 0 0 0 0 0
0 9 187 4 60 76 149 229 60 34 158 185 153 194 142 115 181 154 112 52 23 48 68 123 212 227 300 383 452 330 194 220 217 264 354 335 394 269 175 29 24 188 65 6 4 1 0 0 0 0 0 0 0 0 0 0 0 0 0 0 0 0 0 0 0 0 0 0 0 0 0 0 0 0 0 3 0 0 0 0 0 0 0 0 0 0
3 234 84 24 51 143 295 200 48 49 34 292 183 123 174 103 143 141 137 141 67 51 47 103 116 156 245 324 261 382 448 348 197 193 185 163 353 407 322 205 157 85 44 20 14 0 0 0 0 1 0 0 1 0 0 0 0 0 0 0 0 0 0 0 0 0 0 0 0 0 0 0 0 0 0 0 0 0 0 0 0 0 0 0 0 0
Wind_Speed
nan nan nan nan nan nan nan nan nan nan 26 26 21 21 19 29 20 24 18 14 10 10 11 10 13 12 8 8 10 10 9 9 9 7 7 6 7 8 9 11 12 12 nan nan 9 8 nan 7 6 nan nan 6 5 5 4 4 3 4 5 4 5 6 6 7 7 7 8 7 8 7 8 7 6 8 8 9 8 7 6 6 6 7 5 5 6 6
nan nan nan nan nan nan nan nan nan nan nan 21 19 19 23 20 nan 25 22 14 18 15 11 12 10 8 7 5 6 10 9 7 6 6 5 3 5 7 7 9 11 13 13 11 11 9 nan 9 7 7 8 6 5 5 4 4 3 4 4 4 4 5 5 6 6 6 7 7 7 7 7 6 4 5 7 6 8 7 4 5 6 7 5 5 6 6
nan nan nan nan nan nan nan nan nan nan nan 24 21 24 nan nan 21 22 24 21 16 14 16 7 6 10 9 6 3 5 7 9 8 7 6 5 4 7 7 8 9 11 13 12 11 10 10 9 8 9 9 7 5 4 3 3 3 3 4 4 4 5 4 5 5 4 5 6 7 8 7 7 4 5 6 4 5 5 3 3 5 5 5 6 5 6
nan nan nan nan nan nan nan nan nan nan nan 20 29 22 19 19 16 20 20 17 18 17 17 14 12 11 11 8 5 3 6 12 12 11 10 8 7 7 6 7 8 8 12 12 11 10 10 11 10 10 10 8 7 6 5 4 2 4 5 4 3 3 4 3 3 4 3 4 5 7 9 8 8 4 4 4 3 4 3 2 2 3 4 5 5 4
nan nan nan nan nan nan nan nan nan nan nan nan nan 24 nan 17 19 27 19 17 15 14 15 11 12 11 9 7 7 6 5 9 13 16 11 7 8 9 8 6 7 8 11 13 12 11 11 12 11 11 10 9 8 7 6 5 3 4 2 3 2 3 2 2 1 3 3 3 4 6 6 5 5 4 3 3 2 2 2 2 2 1 3 3 4 3
nan nan nan nan nan nan nan nan nan nan nan nan nan nan 18 18 25 nan 22 17 15 15 10 10 10 9 6 3 5 9 5 4 10 9 11 9 7 6 5 4 7 9 11 12 13 13 13 13 13 12 10 10 9 8 7 5 4 3 3 3 3 4 3 1 1 3 3 4 4 5 5 4 4 3 3 2 2 1 1 1 1 1 2 1 2 2
nan nan nan nan nan nan nan nan nan nan nan nan nan nan nan nan 21 23 18 16 15 16 14 6 12 13 13 7 6 7 5 3 8 6 7 10 10 6 4 5 7 9 10 11 13 14 14 13 12 11 11 10 10 9 8 7 6 4 5 4 3 4 4 2 1 2 3 3 4 4 4 5 4 4 5 5 5 3 2 3 3 2 2 0 1 0
nan nan nan nan nan nan nan nan nan nan nan nan nan nan nan nan 24 18 18 18 20 24 21 10 9 12 9 9 8 8 5 6 6 6 6 7 9 8 5 4 7 8 8 10 11 13 13 13 12 12 12 11 11 11 10 8 8 6 6 6 4 5 4 3 1 1 2 3 4 4 5 4 4 4 6 5 5 5 5 4 3 3 4 3 2 2
nan nan nan nan nan nan nan nan nan nan nan nan nan nan nan nan nan nan nan nan 19 nan 15 13 11 11 12 20 13 9 4 6 7 7 7 7 8 9 6 5 7 8 9 9 10 11 12 13 12 13 13 11 11 11 12 11 10 9 7 7 6 5 4 4 1 0 0 2 3 3 4 4 4 4 5 5 5 5 4 5 5 4 5 5 4 3
nan nan nan nan nan nan nan nan nan nan nan nan nan nan nan nan nan nan nan nan 18 nan 14 14 13 14 16 19 15 11 6 4 7 9 9 9 9 11 10 8 9 10 10 10 10 11 12 13 14 15 14 11 12 13 13 12 11 10 9 8 8 7 5 5 2 1 2 1 2 2 3 2 3 4 6 6 6 5 5 4 5 6 5 4 5 4
nan nan nan nan nan nan nan nan nan nan nan nan nan nan nan nan nan nan 27 23 17 14 nan 16 13 15 16 15 13 13 9 5 8 10 12 11 10 12 14 12 12 13 12 12 11 12 11 13 14 15 12 12 13 14 14 14 13 11 10 9 9 8 7 6 4 3 3 2 1 3 2 2 3 4 5 6 6 6 5 5 5 6 6 6 6 5
nan nan nan nan nan nan nan nan nan nan nan nan nan nan nan nan nan nan 25 23 17 nan 26 21 16 16 16 19 17 15 19 12 12 14 17 18 14 13 18 16 14 14 14 14 13 13 11 11 12 13 12 12 12 14 15 14 14 13 12 11 10 9 8 8 6 5 4 3 2 3 3 3 4 5 6 6 6 6 5 5 6 7 7 6 6 5
nan nan nan nan nan nan nan nan nan nan nan nan nan nan nan nan nan 29 24 nan nan nan 27 23 20 18 15 21 22 19 17 17 14 15 17 20 19 17 16 18 21 18 16 15 14 13 11 9 10 10 10 12 13 14 14 14 14 14 14 12 11 11 9 9 8 6 5 4 3 2 3 4 5 6 7 7 7 6 6 6 6 6 6 6 6 6
nan nan nan nan nan nan nan nan nan nan nan nan nan nan nan nan nan nan nan nan 22 24 27 25 24 17 25 18 18 18 17 15 15 15 17 20 21 22 20 19 24 22 18 17 15 14 12 9 10 10 10 12 14 13 14 14 15 16 15 13 12 12 11 11 9 8 7 5 4 3 4 5 6 6 7 7 7 6 7 6 6 5 5 5 4 7
nan nan nan nan nan nan nan nan nan nan nan nan nan nan nan nan nan nan nan nan nan 20 22 28 20 21 15 23 20 18 18 14 13 14 17 19 21 23 24 21 22 26 21 20 18 14 12 10 10 12 12 13 14 13 15 15 15 16 16 15 13 12 12 11 11 11 8 8 6 5 5 5 6 5 6 7 8 8 7 6 5 5 5 4 6 6
nan nan nan nan nan nan nan nan nan nan nan nan nan nan nan nan nan nan nan 23 nan 17 20 21 20 23 22 18 21 17 17 15 13 13 17 19 20 23 22 19 19 28 24 20 19 16 12 12 12 14 14 14 14 13 15 15 16 16 17 16 14 13 13 12 12 11 10 9 9 7 6 4 4 5 5 7 7 8 8 8 7 6 5 6 7 7
nan nan nan nan nan nan nan nan nan nan nan nan nan nan nan nan nan nan nan nan 19 19 16 25 18 17 26 16 19 17 15 15 13 13 16 19 20 22 20 17 13 23 26 22 20 17 14 12 13 15 15 15 14 14 15 16 17 16 18 17 16 14 14 12 12 10 9 9 9 8 7 6 5 4 3 3 3 4 6 8 7 6 5 5 6 7
nan nan nan nan nan nan nan nan nan nan nan nan nan nan nan nan nan nan nan nan nan nan nan 18 15 15 17 20 22 18 14 16 14 12 16 20 20 21 18 16 14 19 24 25 21 18 16 15 14 15 16 15 15 15 15 15 16 17 17 17 16 15 13 13 12 10 10 10 9 9 8 7 6 5 3 3 3 4 6 7 8 7 7 6 6 7
nan nan nan nan nan nan nan nan nan nan nan nan nan nan nan nan nan nan nan nan nan nan nan 19 17 nan nan 22 21 18 16 17 14 14 17 19 20 20 19 17 17 16 23 26 23 20 18 17 16 16 16 16 16 16 16 15 16 17 16 16 15 14 13 11 11 10 10 10 11 11 9 8 8 8 7 6 6 6 6 6 8 7 9 8 9 9
nan nan nan nan nan nan nan nan nan nan nan nan nan nan nan nan nan nan nan nan nan nan nan 20 nan nan nan nan 22 15 18 17 16 15 15 18 19 19 19 19 18 17 24 29 22 19 19 17 17 17 18 19 19 18 18 16 15 14 14 15 14 14 14 11 9 10 10 10 11 12 12 11 10 10 10 10 9 7 6 7 8 8 9 9 10 10
nan nan nan nan nan nan nan nan nan nan nan nan nan nan nan nan nan nan nan nan nan nan nan nan nan nan 28 25 24 22 18 17 16 16 15 15 18 18 18 18 16 16 26 28 22 19 19 18 18 19 21 22 22 21 20 18 15 14 14 14 14 14 12 10 9 10 10 11 12 12 12 12 12 10 11 10 11 9 9 8 8 9 10 12 11 12
nan nan nan nan nan nan nan nan nan nan nan nan nan nan nan nan nan nan nan nan nan nan nan nan nan 27 28 23 23 22 21 19 18 17 16 14 16 16 15 16 15 13 25 33 32 27 23 22 21 23 25 24 24 22 21 20 18 15 14 15 14 13 12 11 10 10 10 11 12 11 13 12 13 12 11 11 11 11 10 9 8 8 10 10 12 11
nan nan nan nan nan nan nan nan nan nan nan nan nan nan nan nan nan nan nan nan nan nan nan nan nan 25 24 22 23 23 22 21 17 17 16 14 15 14 14 15 16 15 17 24 33 37 35 33 33 32 28 25 23 23 22 20 18 16 15 14 14 12 12 11 11 11 12 12 12 11 12 13 13 13 11 11 12 12 12 12 9 9 8 8 9 12
nan nan nan nan nan nan nan nan nan nan nan nan nan nan nan nan nan nan nan nan nan nan nan nan nan 27 26 22 22 25 24 23 19 17 17 16 15 14 14 15 15 16 16 20 30 36 33 32 34 36 33 30 27 27 24 22 22 20 17 15 15 13 14 14 15 14 13 13 13 12 12 13 14 13 12 12 13 13 13 12 12 12 10 8 8 10
28 32 34 nan nan nan nan nan nan nan nan nan nan nan nan nan nan nan nan nan nan nan nan nan nan nan 26 20 24 23 23 23 21 20 18 17 15 13 14 15 13 14 15 17 22 34 43 39 33 34 34 35 35 32 29 26 24 22 18 17 17 17 17 17 17 18 17 15 14 13 13 13 13 13 14 15 16 14 13 12 12 14 12 11 9 8
nan 32 34 nan nan nan nan nan nan nan nan nan nan nan nan nan nan nan nan nan nan nan nan nan nan 34 27 20 23 24 25 25 26 23 21 17 13 11 11 14 13 12 12 13 14 26 39 40 39 40 39 35 32 31 33 33 29 26 24 22 20 18 17 18 18 17 17 16 15 17 16 14 13 12 12 12 12 12 11 11 12 13 14 13 11 10
nan 28 33 nan nan nan 36 42 nan nan nan nan nan nan nan nan nan nan nan nan nan nan nan nan nan 29 24 19 20 24 25 27 26 22 17 14 14 14 10 8 9 9 10 11 11 14 25 31 35 39 39 36 33 31 31 29 27 28 28 27 24 20 18 19 19 17 16 16 16 18 17 15 15 14 14 14 14 13 12 11 10 12 13 15 14 13
26 nan nan 38 nan nan 30 nan nan nan nan nan nan nan nan nan nan nan nan nan nan nan nan nan nan nan 25 23 21 23 26 29 26 22 16 13 16 15 16 16 12 11 12 11 11 13 17 18 20 25 29 32 33 36 38 36 31 29 29 23 19 19 19 21 20 17 17 19 20 19 20 20 19 19 18 19 18 17 15 14 13 13 15 16 16 16
nan nan nan nan nan nan 31 31 32 36 39 38 38 nan 34 nan nan nan nan 41 39 nan nan 30 26 22 33 29 26 25 26 27 27 25 18 14 18 18 16 14 14 17 18 17 16 16 15 13 15 16 17 18 19 22 31 37 37 36 33 28 21 18 18 20 19 18 19 21 22 22 24 25 24 24 24 26 26 23 19 18 17 17 17 17 17 17
nan nan nan nan nan nan 30 26 27 34 38 42 43 41 40 37 38 37 39 41 39 37 34 28 33 37 38 36 31 31 26 25 29 31 27 22 20 19 17 15 15 17 19 20 18 18 17 17 16 14 14 14 14 13 18 29 39 37 29 26 22 20 22 23 22 22 23 23 23 25 25 24 26 26 25 26 27 25 23 22 21 22 21 20 19 18
nan 22 28 28 nan nan nan 27 27 31 37 43 45 45 43 41 43 44 44 45 40 40 38 35 36 38 38 37 37 34 31 32 29 29 31 31 28 24 22 21 22 27 25 23 17 17 18 19 19 17 14 15 16 17 13 15 28 33 31 31 28 25 24 24 24 24 24 24 26 27 27 26 25 24 21 21 22 24 24 22 23 25 26 25 23 20
nan 25 24 29 nan nan nan nan nan 30 36 42 nan 45 45 43 42 45 44 45 43 41 39 34 35 37 36 36 35 32 33 32 29 27 28 29 30 30 28 27 30 30 26 22 20 23 23 23 23 21 20 20 21 22 19 14 13 19 23 26 29 30 30 28 27 26 25 25 26 27 24 25 24 23 21 21 21 21 22 22 22 25 27 29 27 24
28 31 nan nan nan 26 nan nan nan nan nan 34 nan nan 40 42 41 44 45 46 45 38 33 35 41 39 37 34 34 32 31 30 29 26 24 24 26 29 32 33 34 32 30 27 25 26 27 26 24 24 26 26 25 24 22 21 20 20 19 19 19 20 21 20 19 20 21 20 20 19 19 20 20 20 20 20 20 20 20 20 20 21 23 26 28 28
24 nan 23 nan nan nan nan nan nan nan 23 nan nan nan nan 41 43 44 46 47 46 42 40 37 38 38 35 31 31 32 32 31 31 30 27 26 25 27 30 33 36 38 34 30 28 28 29 27 26 26 27 29 29 28 28 27 26 24 22 21 22 24 25 26 27 26 24 23 23 21 19 18 17 18 19 19 19 19 18 17 18 20 21 25 28 29
18 24 26 nan nan nan 37 nan nan 30 nan nan nan nan 34 34 36 44 46 47 46 43 41 40 36 35 34 30 34 34 34 37 37 34 34 34 31 28 29 30 33 37 35 30 29 30 29 29 29 30 30 30 30 29 30 31 30 30 29 28 28 27 27 28 27 27 26 27 28 30 31 29 25 22 20 18 18 17 17 17 18 22 23 22 25 29
14 17 25 nan 27 nan nan nan nan 37 nan nan nan nan nan 27 33 28 44 46 45 43 43 42 40 38 35 39 39 36 35 39 40 37 36 36 33 31 29 30 32 33 32 30 30 29 26 28 30 31 31 29 29 30 31 32 31 33 34 35 35 33 32 31 31 30 29 29 30 32 32 31 29 28 27 28 25 23 24 24 22 23 24 22 23 28
17 18 20 24 27 nan nan nan nan 33 nan nan nan nan nan nan 35 34 37 40 41 41 41 40 38 37 37 38 38 36 37 38 40 38 39 39 35 34 33 32 34 37 36 32 31 31 30 29 30 31 30 30 30 30 31 31 33 35 35 36 37 36 35 36 35 33 32 32 32 31 31 31 31 30 29 29 29 29 28 26 26 25 22 22 25 29
nan 15 18 19 23 25 nan nan nan nan nan 34 nan nan nan nan nan nan 29 nan 38 38 36 37 38 35 35 34 35 34 33 38 40 40 40 41 40 41 40 38 36 37 38 38 36 35 35 34 32 31 32 33 33 31 30 30 32 35 35 35 36 38 38 38 38 36 35 34 33 33 33 32 32 32 32 32 31 29 26 25 25 24 23 23 23 24
nan nan 12 12 18 17 nan nan nan nan nan nan nan nan nan nan nan nan 29 nan nan 36 34 32 35 33 32 32 33 31 31 34 41 42 42 42 43 43 44 43 42 41 41 40 39 39 38 37 37 36 35 36 35 32 34 34 33 35 36 35 37 39 41 40 39 38 38 37 34 34 35 36 36 34 33 nan 34 31 27 23 21 18 18 20 20 24
nan nan nan nan 11 nan 12 nan nan nan 25 nan nan nan nan nan nan nan nan nan nan nan 34 32 34 33 33 32 30 32 32 31 37 43 44 47 48 49 47 47 46 46 44 45 45 45 45 nan nan nan nan 35 34 33 34 34 35 36 35 34 35 38 41 40 38 38 37 nan 34 33 34 36 36 34 33 nan 34 nan 29 nan nan 21 17 16 15 19
nan nan nan 7 nan nan nan 14 nan nan nan nan nan nan nan nan nan nan nan nan nan nan 35 32 33 33 33 33 32 33 36 37 40 39 nan 43 nan nan 47 46 47 47 47 49 49 48 47 nan nan nan nan 38 36 36 35 35 36 37 37 38 39 39 39 nan 40 40 38 36 36 36 36 34 34 33 33 nan nan 34 32 30 30 nan 24 18 17 21
nan nan nan nan nan nan nan nan nan 22 nan nan nan 19 21 nan 24 nan nan nan nan nan 36 34 34 34 32 34 34 37 38 41 40 39 39 38 41 41 41 nan nan nan nan nan nan nan nan nan nan nan nan nan 40 38 38 37 38 nan 39 40 41 40 39 38 nan nan 40 38 38 38 38 39 37 36 nan 34 37 37 nan nan 34 nan nan nan nan nan
nan 10 nan nan nan nan nan nan nan nan 17 nan 20 13 22 20 nan nan 28 31 31 nan 30 32 33 36 35 37 38 41 44 41 39 39 39 39 39 nan nan nan nan nan nan nan nan nan nan nan nan nan nan nan 44 42 41 42 41 40 40 41 41 40 40 39 39 39 39 nan 39 38 38 38 38 36 36 37 37 37 37 36 37 37 nan nan nan nan
nan nan nan nan nan nan nan nan nan nan nan nan 21 20 nan nan nan nan 24 nan 30 31 31 30 31 33 35 39 40 42 47 45 42 42 41 41 40 nan nan nan nan nan nan nan nan nan nan nan nan nan nan nan nan nan nan 43 43 42 42 43 41 41 41 41 41 40 40 39 37 nan 37 37 38 nan nan nan nan nan 37 36 36 37 37 35 nan nan
nan 16 16 14 nan 15 15 15 nan nan nan nan 18 18 nan nan nan nan nan nan nan 31 32 32 36 34 33 35 38 41 43 42 45 44 44 nan 43 nan nan nan nan nan nan nan nan nan nan nan nan nan nan nan nan nan nan nan nan nan 45 43 42 42 42 43 42 42 42 41 40 40 39 38 nan 38 nan nan nan 36 36 37 37 38 38 36 35 nan
nan 13 12 12 nan nan nan 14 10 10 12 nan nan nan 15 nan nan nan nan nan 25 26 28 32 34 35 36 35 35 35 35 37 40 42 44 45 45 nan nan nan nan nan nan nan nan nan nan nan nan nan nan nan nan nan nan nan nan nan nan nan nan nan nan 43 44 44 44 43 42 41 40 39 39 nan nan 40 nan nan nan nan nan nan nan nan nan nan
7 nan 8 9 nan 6 9 8 10 11 9 10 11 nan 13 nan nan nan nan nan 22 23 25 27 29 30 32 34 34 36 36 37 36 38 42 42 nan nan nan nan nan nan nan nan nan nan nan nan nan nan nan nan nan nan nan nan nan nan nan nan nan nan nan nan nan nan nan 44 44 nan nan nan 39 nan nan nan nan nan nan nan nan 39 nan nan nan nan
7 nan 7 10 nan 9 13 11 11 11 10 10 9 12 14 nan nan nan nan nan 21 23 24 25 24 27 27 28 31 32 35 37 37 39 40 39 nan nan nan nan nan nan nan nan nan nan nan nan nan nan nan nan nan nan nan nan nan nan nan nan nan nan nan nan nan nan nan nan nan nan nan nan nan nan nan 40 nan nan nan nan nan nan nan nan nan nan
16 nan 10 12 nan 14 nan nan 12 11 11 13 15 16 17 17 18 nan nan nan nan nan 25 25 25 26 26 28 28 29 31 34 36 38 39 41 41 nan nan 45 47 48 49 nan nan nan nan nan nan nan nan nan nan nan nan nan nan nan nan nan nan nan nan nan nan nan nan nan nan nan nan nan nan nan nan nan nan nan nan nan nan nan nan nan nan nan
nan nan 16 nan nan nan 13 15 nan nan 14 16 18 19 20 20 20 23 23 nan nan nan nan 26 27 27 26 28 27 28 29 31 33 36 37 40 42 44 46 nan nan 49 nan nan nan nan nan nan nan nan nan nan nan nan nan nan nan nan nan nan nan nan nan nan nan nan nan nan nan nan nan nan nan nan nan nan nan nan nan nan nan nan nan nan nan nan
nan 15 nan nan nan 20 24 21 nan nan nan 21 21 21 22 21 22 24 25 27 nan nan nan 26 27 28 29 28 29 28 30 30 31 33 34 37 40 44 45 47 48 nan nan nan nan nan nan nan nan nan nan nan nan nan nan nan nan nan nan nan nan nan nan nan nan nan nan nan nan nan nan nan nan nan nan nan nan nan nan nan nan nan nan nan nan nan
Wind_Direction
nan nan nan nan nan nan nan nan nan nan 200 212 195 197 199 189 217 211 222 239 225 215 188 183 176 198 192 203 208 205 200 174 175 174 182 183 188 180 174 185 195 203 nan nan 188 185 nan 187 189 nan nan 180 177 176 182 147 145 137 126 131 116 120 120 117 115 112 115 117 120 120 115 121 118 122 124 115 118 110 130 132 128 100 100 106 108 111
nan nan nan nan nan nan nan nan nan nan nan 208 202 205 207 212 nan 187 208 221 226 205 191 201 184 161 209 222 228 209 210 182 172 168 161 171 198 201 189 189 198 210 205 208 200 194 nan 192 203 198 202 204 200 184 179 147 146 137 120 121 126 129 125 125 124 132 128 131 131 128 128 127 133 120 111 122 114 125 131 120 112 106 118 105 107 110
nan nan nan nan nan nan nan nan nan nan nan 212 206 206 nan nan 205 208 202 205 210 183 208 209 180 195 213 207 198 237 212 203 190 172 168 169 193 215 213 196 202 212 214 214 208 205 200 203 210 204 207 209 204 204 188 173 162 143 134 141 140 135 126 129 135 137 138 138 143 143 143 138 151 140 138 150 152 131 131 110 116 123 112 100 105 102
nan nan nan nan nan nan nan nan nan nan nan 213 214 199 217 226 209 212 205 213 203 191 204 188 195 218 225 201 201 196 210 209 196 199 171 182 180 202 218 206 196 210 218 220 213 212 211 215 211 207 208 211 208 211 203 198 188 161 152 158 151 156 130 141 139 133 133 144 154 155 154 160 156 162 169 162 138 141 136 106 101 110 103 102 92 93
nan nan nan nan nan nan nan nan nan nan nan nan nan 226 nan 229 203 194 211 206 208 187 194 196 188 215 206 220 205 204 214 221 215 193 184 202 189 195 200 197 193 207 216 218 217 211 212 220 220 210 208 213 211 213 214 204 208 176 176 173 175 189 167 154 147 104 129 141 141 148 154 151 175 175 153 140 132 126 131 105 86 78 92 92 106 104
nan nan nan nan nan nan nan nan nan nan nan nan nan nan 227 218 214 nan 213 215 208 210 192 207 196 191 249 236 239 238 224 224 240 234 204 211 223 217 198 194 211 206 211 211 217 213 214 217 223 217 209 208 213 214 217 210 217 194 228 216 198 205 196 176 41 80 118 127 141 155 155 157 164 182 163 159 152 125 63 83 261 295 46 45 82 113
nan nan nan nan nan nan nan nan nan nan nan nan nan nan nan nan 218 216 204 197 212 203 239 215 187 212 219 243 253 260 274 282 261 254 238 220 223 233 203 201 220 225 220 208 214 216 217 218 222 222 211 206 210 215 216 216 218 209 235 244 233 212 209 214 246 58 120 141 144 141 149 158 171 179 195 176 182 197 208 225 261 257 265 211 96 16
nan nan nan nan nan nan nan nan nan nan nan nan nan nan nan nan 226 231 201 185 199 212 223 211 209 187 223 238 268 281 301 320 311 293 280 245 234 235 225 215 224 231 231 218 213 219 218 221 220 223 222 206 207 212 218 218 218 221 226 249 250 221 217 219 231 50 136 161 154 140 144 157 169 192 209 205 195 201 199 228 240 252 254 257 196 213
nan nan nan nan nan nan nan nan nan nan nan nan nan nan nan nan nan nan nan nan 197 nan 215 218 222 207 205 236 254 274 289 329 340 317 298 282 255 246 239 229 231 235 234 228 220 223 219 224 220 223 224 214 211 213 216 217 220 224 226 240 248 236 227 230 265 266 263 175 171 156 157 167 179 198 220 220 214 214 211 226 237 227 245 252 247 227
nan nan nan nan nan nan nan nan nan nan nan nan nan nan nan nan nan nan nan nan 200 nan 206 228 231 200 225 241 237 246 232 306 328 328 315 293 266 252 241 233 236 233 231 228 227 227 221 219 217 223 222 219 215 217 218 219 223 227 226 236 250 244 225 231 247 236 270 226 175 157 155 176 193 207 216 210 224 219 221 231 242 243 235 247 262 267
nan nan nan nan nan nan nan nan nan nan nan nan nan nan nan nan nan nan 201 202 196 199 nan 238 238 205 217 251 249 253 237 270 288 301 308 304 271 257 240 236 236 237 231 226 229 230 230 219 214 220 219 220 222 220 224 221 223 226 227 236 246 245 228 231 229 237 258 258 178 156 150 171 203 211 221 216 219 222 230 231 246 250 250 235 240 249
nan nan nan nan nan nan nan nan nan nan nan nan nan nan nan nan nan nan 212 209 196 nan 232 231 239 226 212 246 246 255 243 266 295 306 316 321 306 279 247 229 234 242 234 228 227 229 236 228 215 215 215 223 226 225 228 224 224 224 227 232 241 244 238 230 225 225 233 236 222 165 152 163 185 205 211 214 214 220 226 232 234 234 238 241 245 237
nan nan nan nan nan nan nan nan nan nan nan nan nan nan nan nan nan 198 214 nan nan nan 234 231 239 230 219 228 245 266 263 264 281 292 308 315 318 304 285 249 233 234 241 232 228 225 226 223 217 210 212 216 225 224 228 226 227 228 229 233 239 238 238 232 228 226 224 226 227 193 165 167 181 195 202 207 206 211 216 220 230 239 233 241 240 243
nan nan nan nan nan nan nan nan nan nan nan nan nan nan nan nan nan nan nan nan 204 229 232 232 237 219 230 234 245 262 274 269 276 286 301 308 308 308 300 269 232 228 235 230 230 225 214 207 204 198 200 208 213 220 225 227 226 229 229 232 236 237 235 232 227 227 225 220 220 219 188 180 190 189 196 202 203 210 213 218 212 230 249 247 240 249
nan nan nan nan nan nan nan nan nan nan nan nan nan nan nan nan nan nan nan nan nan 211 233 241 236 234 243 247 252 255 261 272 275 282 289 302 303 299 300 291 238 221 227 225 223 227 214 197 194 194 194 199 203 210 218 222 226 229 231 234 236 238 237 234 230 226 224 217 215 219 206 194 193 195 196 200 198 203 212 210 232 215 219 235 240 237
nan nan nan nan nan nan nan nan nan nan nan nan nan nan nan nan nan nan nan 198 nan 226 233 242 227 236 236 250 257 256 268 271 277 288 284 292 297 292 291 297 249 218 224 226 221 223 219 200 193 191 195 195 197 203 210 221 227 228 232 238 239 241 241 239 235 231 228 220 219 221 218 206 197 198 199 208 204 200 200 210 201 226 209 205 231 230
nan nan nan nan nan nan nan nan nan nan nan nan nan nan nan nan nan nan nan nan 189 205 216 233 228 234 253 259 264 265 263 272 276 291 292 288 296 295 297 298 260 223 225 228 222 221 220 207 197 194 196 197 196 199 208 218 227 233 236 239 243 243 242 246 245 239 234 233 227 230 229 218 217 210 194 214 230 198 214 209 210 218 222 231 219 225
nan nan nan nan nan nan nan nan nan nan nan nan nan nan nan nan nan nan nan nan nan nan nan 234 233 238 249 250 245 256 259 267 278 286 292 289 294 302 300 304 277 244 232 227 223 220 219 210 200 200 202 201 200 203 209 218 223 229 235 242 249 251 250 250 252 248 244 244 241 241 241 234 220 216 193 186 221 226 220 226 214 217 229 222 230 219
nan nan nan nan nan nan nan nan nan nan nan nan nan nan nan nan nan nan nan nan nan nan nan 241 232 nan nan 250 253 255 254 265 278 282 285 289 293 306 306 298 294 270 237 226 219 217 217 213 204 204 207 208 207 208 212 216 222 226 231 237 244 252 257 259 255 256 249 252 245 245 249 246 240 223 209 207 216 228 232 223 239 226 229 228 231 230
nan nan nan nan nan nan nan nan nan nan nan nan nan nan nan nan nan nan nan nan nan nan nan 250 nan nan nan nan 255 246 251 261 276 283 284 289 292 298 310 305 298 272 231 219 216 216 220 219 209 208 212 215 216 215 216 218 220 227 231 237 241 244 248 247 250 255 253 251 245 244 248 246 237 234 223 219 222 225 232 235 231 233 239 233 230 234
nan nan nan nan nan nan nan nan nan nan nan nan nan nan nan nan nan nan nan nan nan nan nan nan nan nan 241 227 233 243 248 256 269 273 268 277 288 299 310 314 305 260 226 215 210 212 219 218 215 214 214 216 218 218 220 223 222 226 229 235 239 246 251 252 244 251 250 247 245 241 243 244 245 239 237 236 238 226 221 223 230 236 230 241 236 233
nan nan nan nan nan nan nan nan nan nan nan nan nan nan nan nan nan nan nan nan nan nan nan nan nan 238 232 220 222 233 240 248 257 262 262 267 283 292 301 311 321 274 231 222 219 216 219 220 218 220 217 216 220 221 223 225 225 228 230 231 235 239 241 245 246 247 248 245 245 242 242 238 241 243 240 244 251 251 242 229 233 239 238 240 247 244
nan nan nan nan nan nan nan nan nan nan nan nan nan nan nan nan nan nan nan nan nan nan nan nan nan 236 227 213 212 224 233 244 254 260 260 258 274 292 297 310 314 302 269 244 231 219 214 218 217 213 216 217 218 220 222 225 223 223 229 229 232 231 237 235 239 240 239 241 246 244 238 236 240 242 245 247 253 263 262 260 251 246 249 248 247 257
nan nan nan nan nan nan nan nan nan nan nan nan nan nan nan nan nan nan nan nan nan nan nan nan nan 234 232 216 216 221 225 227 242 256 259 257 260 275 295 302 308 301 293 266 245 230 217 214 213 214 212 212 212 218 220 221 222 222 222 223 226 229 230 227 224 229 231 234 240 242 237 234 230 231 232 240 245 252 257 257 260 262 256 253 251 259
201 217 201 nan nan nan nan nan nan nan nan nan nan nan nan nan nan nan nan nan nan nan nan nan nan nan 231 220 225 233 238 239 242 240 242 254 250 264 282 294 306 306 291 287 258 229 220 220 220 219 217 214 215 217 216 217 222 221 220 220 225 229 233 233 228 229 229 228 232 240 242 243 240 236 233 228 229 233 245 252 251 253 251 246 248 253
nan 205 203 nan nan nan nan nan nan nan nan nan nan nan nan nan nan nan nan nan nan nan nan nan nan 238 241 229 232 238 243 245 242 233 222 234 251 253 276 284 291 304 299 304 280 233 222 223 223 223 222 216 210 213 217 219 220 222 221 222 219 226 236 242 240 239 241 244 244 243 242 240 243 247 250 247 244 241 236 243 252 254 256 252 243 247
nan 206 208 nan nan nan 214 213 nan nan nan nan nan nan nan nan nan nan nan nan nan nan nan nan nan 242 249 243 239 248 253 257 252 232 221 232 236 224 233 262 277 285 294 308 303 253 235 236 233 230 228 224 219 217 221 223 223 227 228 222 219 223 231 241 245 249 251 252 253 252 254 252 247 246 252 258 257 255 251 249 253 258 257 256 252 248
203 nan nan 215 nan nan 217 nan nan nan nan nan nan nan nan nan nan nan nan nan nan nan nan nan nan nan 245 253 245 250 261 261 249 227 212 231 238 222 220 227 241 262 270 279 289 272 248 244 241 237 232 230 227 223 221 224 225 227 228 228 227 227 231 238 245 250 255 256 257 258 257 254 251 250 254 256 256 258 255 250 249 249 249 247 249 247
nan nan nan nan nan nan 219 217 221 226 228 229 227 nan 226 nan nan nan nan 222 221 nan nan 233 244 236 241 250 250 245 250 264 255 234 217 233 243 235 227 231 243 251 255 262 267 261 258 260 248 241 238 240 241 236 231 223 221 226 227 226 228 230 235 243 248 250 255 255 256 258 258 257 254 250 253 256 256 256 257 256 254 251 248 251 247 243
nan nan nan nan nan nan 223 219 218 227 228 228 227 226 224 226 224 223 225 222 225 223 221 229 234 235 240 246 246 248 247 258 262 252 242 239 245 243 241 243 247 251 251 252 255 259 264 267 262 254 250 246 247 259 256 233 224 225 227 227 229 231 234 244 250 250 251 252 252 253 258 262 261 260 257 258 259 260 263 263 258 254 252 249 247 242
nan 200 186 192 nan nan nan 223 220 230 228 228 225 224 223 225 225 223 223 222 220 229 226 238 241 240 237 241 245 248 249 250 256 262 260 257 254 250 249 251 247 242 247 250 257 277 282 281 277 264 256 256 253 266 286 254 226 224 227 227 228 231 237 242 249 251 252 254 254 255 257 260 264 268 267 267 264 265 272 274 266 258 252 249 248 244
nan 195 189 184 nan nan nan nan nan 221 232 228 nan 219 219 220 224 222 224 222 223 225 226 236 240 239 241 247 247 248 252 254 255 258 261 264 264 259 257 254 249 252 262 261 262 269 273 278 283 278 267 263 261 268 282 285 250 231 233 236 234 234 235 239 241 246 249 251 257 260 262 262 265 271 272 271 272 276 279 276 271 264 259 252 250 250
186 187 nan nan nan 208 nan nan nan nan nan 224 nan nan 213 222 229 231 228 225 224 217 221 229 232 232 244 248 252 251 251 253 258 258 256 261 264 262 260 257 257 267 274 272 266 267 268 267 268 268 265 263 269 274 273 271 265 250 245 244 238 239 239 238 240 243 245 250 253 258 263 272 277 276 272 270 272 276 278 278 278 275 266 258 251 246
185 nan 193 nan nan nan nan nan nan nan 214 nan nan nan nan 219 224 229 226 226 226 224 229 228 231 241 249 250 253 256 258 256 254 255 254 253 255 259 260 259 259 262 268 270 266 260 258 258 256 256 258 260 262 263 263 265 266 263 260 256 248 245 244 244 240 237 239 242 243 247 256 262 267 267 265 267 270 272 276 281 285 279 270 262 253 245
183 189 199 nan nan nan 194 nan nan 214 nan nan nan nan 214 220 227 233 232 229 229 229 234 239 241 246 246 243 250 253 250 254 254 255 256 255 256 258 261 260 259 261 261 262 262 259 254 255 255 252 251 251 253 255 256 256 259 262 263 261 257 251 249 248 246 243 243 241 239 240 242 246 247 252 252 261 271 270 274 277 281 281 269 260 253 246
180 189 206 nan 206 nan nan nan nan 212 nan nan nan nan nan 218 225 231 236 230 230 232 237 240 239 243 245 248 250 250 251 251 251 248 251 255 256 257 257 258 257 259 261 259 260 259 258 255 253 253 251 248 246 246 247 247 249 254 256 255 252 250 249 250 248 246 242 241 241 241 240 244 252 252 251 249 259 274 272 271 272 273 271 266 258 248
174 185 197 214 213 nan nan nan nan 207 nan nan nan nan nan nan 215 219 232 231 230 234 237 242 245 246 249 253 253 253 251 251 247 243 248 248 250 255 255 257 255 256 257 260 260 259 255 254 254 255 253 250 247 246 247 247 245 245 246 247 249 249 248 248 247 244 244 244 242 243 245 246 248 250 247 248 249 251 258 266 264 257 253 262 262 253
nan 173 201 198 219 215 nan nan nan nan nan 214 nan nan nan nan nan nan 223 nan 229 233 237 240 245 249 252 253 256 257 256 252 245 245 248 253 250 249 250 251 253 256 258 260 259 260 259 257 255 254 254 252 249 246 246 247 246 246 246 247 248 248 247 247 249 248 246 243 242 244 246 247 249 250 250 249 245 246 251 253 250 249 247 245 251 253
nan nan 191 186 218 224 nan nan nan nan nan nan nan nan nan nan nan nan 221 nan nan 227 237 237 245 248 251 256 258 258 256 252 250 249 249 251 251 253 255 253 254 258 261 262 263 263 262 260 257 254 251 249 247 246 247 249 249 247 244 243 245 245 247 245 246 247 248 247 243 244 246 245 245 246 245 nan 247 246 245 250 253 248 240 239 239 235
nan nan nan nan 219 nan 235 nan nan nan 225 nan nan nan nan nan nan nan nan nan nan nan 228 234 243 244 247 250 251 252 241 235 246 247 246 244 244 245 247 252 255 256 257 260 261 260 261 nan nan nan nan 250 247 246 244 242 242 247 249 246 248 247 246 245 248 251 252 nan 250 247 248 249 245 241 242 nan 248 nan 244 nan nan 243 235 233 233 237
nan nan nan 198 nan nan nan 248 nan nan nan nan nan nan nan nan nan nan nan nan nan nan 220 227 235 240 244 248 245 247 239 237 246 251 nan 247 nan nan 244 243 247 252 256 259 259 262 261 nan nan nan nan 249 248 246 245 245 246 248 248 248 248 248 250 nan 243 245 246 248 250 251 250 247 248 251 248 nan nan 252 251 247 245 nan 243 240 251 244
nan nan nan nan nan nan nan nan nan 241 nan nan nan 216 224 nan 226 nan nan nan nan nan 218 218 225 233 239 249 247 243 245 247 254 253 251 250 251 251 255 nan nan nan nan nan nan nan nan nan nan nan nan nan 248 247 245 245 246 nan 248 249 250 250 250 251 nan nan 247 249 249 250 250 248 248 251 nan 248 249 251 nan nan 251 nan nan nan nan nan
nan 171 nan nan nan nan nan nan nan nan 234 nan 195 223 226 223 nan nan 235 239 229 nan 226 227 224 229 229 242 244 247 250 248 246 247 248 247 247 nan nan nan nan nan nan nan nan nan nan nan nan nan nan nan 246 246 246 246 246 246 247 250 250 250 250 251 251 252 250 nan 250 252 252 254 252 250 250 250 249 249 249 250 251 249 nan nan nan nan
nan nan nan nan nan nan nan nan nan nan nan nan 207 228 nan nan nan nan 232 nan 241 240 242 246 242 236 232 234 241 248 253 254 251 250 250 249 249 nan nan nan nan nan nan nan nan nan nan nan nan nan nan nan nan nan nan 248 248 247 248 249 250 252 254 254 253 253 253 253 252 nan 249 251 253 nan nan nan nan nan 248 249 250 250 248 246 nan nan
nan 180 181 191 nan 192 212 226 nan nan nan nan 222 234 nan nan nan nan nan nan nan 240 240 243 249 249 247 246 248 250 253 252 254 255 253 nan 254 nan nan nan nan nan nan nan nan nan nan nan nan nan nan nan nan nan nan nan nan nan 250 250 251 252 254 255 254 253 253 252 250 249 249 250 nan 248 nan nan nan 244 245 246 247 248 246 245 245 nan
nan 170 168 163 nan nan nan 213 227 235 232 nan nan nan 234 nan nan nan nan nan 239 237 237 240 244 249 251 250 254 258 258 260 258 257 253 254 255 nan nan nan nan nan nan nan nan nan nan nan nan nan nan nan nan nan nan nan nan nan nan nan nan nan nan 255 255 254 252 252 251 250 251 252 251 nan nan 245 nan nan nan nan nan nan nan nan nan nan
206 nan 161 180 nan 175 219 232 234 240 244 241 246 nan 243 nan nan nan nan nan 241 238 240 241 242 248 249 251 252 255 259 264 266 262 258 257 nan nan nan nan nan nan nan nan nan nan nan nan nan nan nan nan nan nan nan nan nan nan nan nan nan nan nan nan nan nan nan 252 251 nan nan nan 248 nan nan nan nan nan nan nan nan 250 nan nan nan nan
248 nan 176 213 nan 196 234 242 237 243 248 246 251 267 263 nan nan nan nan nan 249 249 246 245 245 248 248 251 250 252 257 261 265 266 266 265 nan nan nan nan nan nan nan nan nan nan nan nan nan nan nan nan nan nan nan nan nan nan nan nan nan nan nan nan nan nan nan nan nan nan nan nan nan nan nan 251 nan nan nan nan nan nan nan nan nan nan
238 nan 226 239 nan 244 nan nan 249 255 264 270 265 254 257 260 265 nan nan nan nan nan 255 255 247 247 246 246 250 251 255 257 259 262 264 264 263 nan nan 265 265 264 263 nan nan nan nan nan nan nan nan nan nan nan nan nan nan nan nan nan nan nan nan nan nan nan nan nan nan nan nan nan nan nan nan nan nan nan nan nan nan nan nan nan nan nan
nan nan 247 nan nan nan 238 263 nan nan 267 277 271 268 267 266 264 265 264 nan nan nan nan 255 258 256 251 249 252 254 254 255 255 257 259 259 260 260 261 nan nan 263 nan nan nan nan nan nan nan nan nan nan nan nan nan nan nan nan nan nan nan nan nan nan nan nan nan nan nan nan nan nan nan nan nan nan nan nan nan nan nan nan nan nan nan nan
nan 248 nan nan nan 241 248 255 nan nan nan 255 267 270 270 267 266 265 264 262 nan nan nan 258 258 260 259 257 255 255 257 255 256 257 257 255 256 258 259 261 261 nan nan nan nan nan nan nan nan nan nan nan nan nan nan nan nan nan nan nan nan nan nan nan nan nan nan nan nan nan nan nan nan nan nan nan nan nan nan nan nan nan nan nan nan nan